Location: Unspecified
(52.4292°N, 19.3359°E)
Time: 16:10:46
(UTC+02:00)

Transit 2A Rocket - Pass Details

Date: 25 May 2024
Orbit: 583 x 910 km, 66.7° (Epoch: 14 June)

Event Time Altitude Azimuth Distance (km) Brightness Sun altitude
Rises 06:45:00 0° 272° (W) 3,133 7.6 17.3°
Reaches altitude 10° 06:47:44 10° 287° (WNW) 2,274 7.0 17.7°
Maximum altitude 06:51:55 24° 340° (NNW) 1,611 6.7 18.4°
Drops below altitude 10° 06:56:25 10° 33° (NNE) 2,453 8.4 19.0°
Sets 06:59:29 0° 47° (NE) 3,441 9.3 19.5°
